Regional Weather Roundup
Issued by NWS Little Rock, AR

Home | Current Version | Previous Version | Graphics & Text | Print | Product List | Glossary On
Versions: 1 2 3 4 5 6 7 8 9 10 11 12 13 14 15 16 17 18 19 20 21 22 23 24 25 26 27 28 29 30 31 32 33 34 35 36 37 38 39 40 41 42 43 44 45 46 47 48 49 50
319
ASUS44 KLZK 251812
RWRLZK

WEATHER ROUNDUP FOR ARKANSAS
NATIONAL WEATHER SERVICE LITTLE ROCK AR
100 PM CDT SUN JUN 25 2017

NOTE: "FAIR" INDICATES FEW OR NO CLOUDS BELOW 12,000 FEET WITH NO
SIGNIFICANT WEATHER AND/OR OBSTRUCTIONS TO VISIBILITY.

ARZ001-003-010-029-251900-
NORTHWEST ARKANSAS

CITY           SKY/WX    TMP DP  RH WIND       PRES   REMARKS
FAYETTEVILLE   SUNNY     81  51  35 NE5       30.29F
6HR MIN TEMP:  60; 6HR MAX TEMP:  81;

FORT SMITH     SUNNY     85  56  37 E12       30.25F
6HR MIN TEMP:  68; 6HR MAX TEMP:  85;

HARRISON       SUNNY     79  48  33 CALM      30.30F
6HR MIN TEMP:  61; 6HR MAX TEMP:  80;

BENTONVILLE    SUNNY     81  52  36 E7        30.30F
6HR MIN TEMP:  64; 6HR MAX TEMP:  81;

ROGERS         SUNNY     80  50  34 CALM      30.30F
6HR MIN TEMP:  63; 6HR MAX TEMP:  80;

SILOAM SPGS    SUNNY     81  52  36 E3        30.28F
6HR MIN TEMP:  63; 6HR MAX TEMP:  81;

HIGHFILL       SUNNY     84  51  31 NE8       30.29F
6HR MIN TEMP:  64; 6HR MAX TEMP:  85;

SPRINGDALE     SUNNY     79  50  36 E8        30.31F
$$

ARZ004-005-016-251900-
NORTH CENTRAL ARKANSAS

CITY           SKY/WX    TMP DP  RH WIND       PRES   REMARKS
BATESVILLE     SUNNY     82  54  36 CALM      30.27F
6HR MIN TEMP:  64; 6HR MAX TEMP:  82;

FLIPPIN        SUNNY     82  50  32 CALM      30.25F
$$

ARZ040-041-251900-
WEST CENTRAL ARKANSAS

CITY           SKY/WX    TMP DP  RH WIND       PRES   REMARKS
MENA           SUNNY     84  52  32 NE7       30.28F
MOUNT IDA      SUNNY     82  51  34 VRB6      30.25F
6HR MIN TEMP:  64; 6HR MAX TEMP:  82;

$$

ARZ009-017-025-026-028-251900-
NORTHEAST ARKANSAS

CITY           SKY/WX    TMP DP  RH WIND       PRES   REMARKS
JONESBORO      SUNNY     84  49  29 NW3       30.25F
6HR MIN TEMP:  67; 6HR MAX TEMP:  84;

WALNUT RIDGE   SUNNY     82  55  39 CALM      30.25F
6HR MIN TEMP:  64; 6HR MAX TEMP:  82;

BLYTHEVILLE    SUNNY     83  50  31 CALM      30.26S
6HR MIN TEMP:  67; 6HR MAX TEMP:  83;

$$

ARZ022-023-033-042-044-251900-
CENTRAL ARKANSAS

CITY           SKY/WX    TMP DP  RH WIND       PRES   REMARKS
LITTLE ROCK    MOSUNNY   82  58  43 VRB3      30.25F
6HR MIN TEMP:  67; 6HR MAX TEMP:  83;

N LITTLE ROCK    N/A     82  57  42 E5        30.25F
6HR MIN TEMP:  67; 6HR MAX TEMP:  82;

JACKSONVILLE   MOSUNNY   82  59  44 NE5       30.25F
6HR MIN TEMP:  66; 6HR MAX TEMP:  82;

CONWAY           N/A     82  55  39 VRB5      30.24F
SEARCY         SUNNY     82  57  42 N8        30.28S
6HR MIN TEMP:  63; 6HR MAX TEMP:  83;

HOT SPRINGS    SUNNY     84  58  40 VRB6      30.26S
6HR MIN TEMP:  66; 6HR MAX TEMP:  84;

RUSSELLVILLE   SUNNY     83  52  34 E5        30.26S
6HR MIN TEMP:  66; 6HR MAX TEMP:  83;

CLINTON        FAIR      82  48  30 VRB6      30.27F
$$

ARZ036-251900-
EAST ARKANSAS

CITY           SKY/WX    TMP DP  RH WIND       PRES   REMARKS
WEST MEMPHIS   SUNNY     82  59  45 NE7       30.24S
6HR MIN TEMP:  66; 6HR MAX TEMP:  82;

$$

ARZ050-053-066-070-073-251900-
SOUTHWEST ARKANSAS

CITY           SKY/WX    TMP DP  RH WIND       PRES   REMARKS
CAMDEN         SUNNY     84  57  39 NE9       30.24S
TEXARKANA      MOSUNNY   84  60  44 E8        30.24S
6HR MIN TEMP:  69; 6HR MAX TEMP:  84;

EL DORADO      CLOUDY    81  65  58 E8        30.24F
6HR MIN TEMP:  69; 6HR MAX TEMP:  82;

DE QUEEN       SUNNY     83  60  45 E9        30.23F
6HR MIN TEMP:  65; 6HR MAX TEMP:  83;

$$

ARZ056-057-069-251900-
SOUTHEAST ARKANSAS

CITY           SKY/WX    TMP DP  RH WIND       PRES   REMARKS
PINE BLUFF     SUNNY     82  60  47 E9        30.26S
6HR MIN TEMP:  68; 6HR MAX TEMP:  82;

STUTTGART      SUNNY    N/A N/A N/A N7        30.26S
MONTICELLO     SUNNY     83  58  42 NE10      30.25S
6HR MIN TEMP:  69; 6HR MAX TEMP:  83;


$$






USA.gov is the U.S. government's official web portal to all federal, state and local government web resources and services.